Tracking 35331 objects as of 15-Sep-2026
HD Live streaming from Space Station
objects crossing your sky now

EKRAN 10

Track EKRAN 10 now!
EKRAN 10 is classified as:


NORAD ID: 13878
Int'l Code: 1983-016A
Launch date: March 12, 1983
Source: Commonwealth of Independent States (former USSR) (CIS)
Launch site: TYURATAM MISSILE AND SPACE COMPLEX (TTMTR)
Your satellite tracking list
Your tracking list is empty




NASA's NSSDC Master Catalog

Two Line Element Set (TLE):
1 13878U 83016A   26257.55928417 -.00000100  00000-0  00000-0 0  9990
2 13878  10.2262 309.8690 0031098  26.0544 138.7486  0.95030392120022
Source of the keplerian elements: AFSPC